KUIPER-00136

导读

KUIPER-00165是美国亚马逊公司(现已将项目更名为Amazon Leo)旗下低轨卫星互联网星座项目中的一颗卫星,于2025年9月25日发射升空。该卫星属于项目大规模部署阶段发射的卫星,旨在为全球网络覆盖不足地区提供高速低延迟互联网接入,同时可整合AWS云服务,支撑物联网、边缘计算等应用,助力完成3232颗卫星的组网目标。

Basic Information
目录编号:
65778
目录名称:
KUIPER-00165
国际标识:
2025-217S
轨道中心:
EARTH
卫星名称:
KUIPER-00165
卫星全名:
KUIPER-00136
卫星状态:
在轨 (已飞行352 天)
发射日期:
2025-09-25 UTC
国别 :
美国 (US)
星等 :
--
This satellite is enrolled in the Space Conjunction Data Service (SCDS) and the current flight risk assessment level is: No High Risk
Orbit Information
数据来源 国际轨道数据 AOE轨道数据
星历时间 2026-09-11T19:59:32+0800
16小时前
查看轨道信息
2026-09-11T06:00:00+0800
1天前
查看轨道信息
半长轴 7007.641km 7007.666km
偏心率 0.0000434 0.0001088
轨道倾角 51.900° 51.903°
近地点辐角 42.255° 19.598°
升交点赤经 293.955° 296.533°
平近点角 317.844° 112.394°
近地点 629.199km 628.766km
远地点 629.809km 630.292km
周期 97.301分钟 97.302分钟
每日圈数 14.799433 14.799353
Detailed Information
使用方式:
暂无
2D Orbit Map
3D Orbit Map
Orbit Altitude Analysis Chart
Orbit Inclination Analysis Chart
Orbit Comprehensive Analysis Chart
View Comprehensive Chart
Miss Distance Evolution Trend with All Objects
Collision Probability Evolution Trend with All Objects